Flag for U.S.A. Weather past 2 weeks in Hollywood, California, U.S.A.

Now
77 °F

Sunny.


Feels Like: 79 °F
Forecast: 69 / 92 °F
Wind: No wind

Location: Burbank-Glendale-Pasadena Airport

Current Time: Aug 29, 2015 at 8:14:34 AM

Latest Report: Aug 29, 2015 at 7:53 AM


Visibility: 10 mi

Pressure: 29.86 "Hg

Humidity: 58%

Dew point: 61 °F

Location of HollywoodLocation

Historic Weather in Hollywood — Graph

°F

Hollywood temperature yesterday

Maximum temperature yesterday: 101 °F (at 1:53 PM)
Minimum temperature yesterday: 75 °F (at 5:53 AM)
Average temperature yesterday: 87 °F

Past Weeks' High & Low Weather Summary

 TemperatureHumidityPressure
High102 °F (Aug 15, 1:53 PM)88% (Aug 19, 4:56 AM)29.95 "Hg (Aug 19, 4:56 AM)
Low66 °F (Aug 20, 2:53 AM)11% (Aug 16, 2:53 PM)29.75 "Hg (Aug 16, 6:53 PM)
Average80 °F54%29.86 "Hg
* Reported Aug 14 6:53 AM — Aug 29 6:53 AM, Hollywood, Weather by CustomWeather, © 2015

Note: Actual official high and low records may vary slightly from our data, if they occured in-between our weather recording intervals... More about our weather records

Advertising

Hollywood weather history for previous 24 hours

 ConditionsComfort  
Time TempWeatherWind HumidityBarometerVisibility
6:53 AM
Sat, Aug 29
74 °FClear.No wind52%29.84 "Hg10 mi
5:53 AM74 °FClear.No wind52%29.83 "Hg10 mi
4:53 AM75 °FClear.No wind52%29.82 "Hg10 mi
3:53 AM76 °FClear.No wind58%29.83 "Hg10 mi
2:53 AM77 °FClear.No wind56%29.82 "Hg10 mi
1:53 AM79 °FClear.3 mph54%29.83 "Hg10 mi
12:53 AM79 °FClear.No wind54%29.83 "Hg10 mi
11:53 PM
Fri, Aug 28
79 °FClear.5 mph56%29.82 "Hg10 mi
10:53 PM80 °FClear.7 mph58%29.82 "Hg10 mi
9:53 PM82 °FClear.7 mph53%29.82 "Hg10 mi
8:53 PM84 °FClear.5 mph46%29.80 "Hg10 mi
7:53 PM88 °FSunny.6 mph34%29.78 "Hg10 mi
6:53 PM91 °FSunny.7 mph28%29.78 "Hg10 mi
5:53 PM93 °FSunny.10 mph27%29.78 "Hg10 mi
4:53 PM97 °FSunny.13 mph23%29.77 "Hg10 mi
3:53 PM99 °FSunny.9 mph19%29.78 "Hg10 mi
2:53 PM101 °FSunny.10 mph19%29.78 "Hg10 mi
1:53 PM101 °FSunny.6 mph22%29.80 "Hg10 mi
12:53 PM99 °FSunny.7 mph21%29.82 "Hg10 mi
11:53 AM98 °FSunny.7 mph23%29.85 "Hg10 mi
10:53 AM93 °FSunny.No wind27%29.87 "Hg10 mi
9:53 AM90 °FSunny.No wind32%29.87 "Hg10 mi
8:53 AM83 °FSunny.No wind43%29.88 "Hg10 mi
Weather by CustomWeather, © 2015

See weather overviewHow to use our weather pages